St. Louis, MO

5:49 PM CDT on March 28, 2017 (GMT -0500)
Lambert-Saint Louis International

Weather History for KSTL - October, 2013

Change the Weather History Date:

Monday, October 7, 2013

  Actual Average Record
Temperature  
Mean Temperature 61 °F 62 °F  
Max Temperature 71 °F 72 °F 92 °F (1963)
Min Temperature 51 °F 52 °F 29 °F (1952)
Degree Days  
Heating Degree Days 4 5  
Month to date heating degree days 14 32  
Since 1 July heating degree days 17 73  
Cooling Degree Days 0 2  
Month to date cooling degree days 53 17  
Year to date cooling degree days 1718 1618  
Growing Degree Days 11 (Base 50)    
Moisture  
Dew Point 45 °F    
Average Humidity 59    
Maximum Humidity 83    
Minimum Humidity 35    
Precipitation  
Precipitation 0.00 in 0.11 in 1.74 in (1990)
Month to date precipitation 0.55 0.74  
Year to date precipitation 37.90 31.62  
Snow  
Snow 0.00 in 0.00 in 0.00 in (2015)
Month to date snowfall 0.0 0.0  
Since 1 July snowfall 0.0 0.0  
Since 1 September snowfall 0.0 0.0  
Snow Depth 0.00 in    
Sea Level Pressure  
Sea Level Pressure 30.03 in    
Wind  
Wind Speed 7 mph (WNW)    
Max Wind Speed 18 mph    
Max Gust Speed 24 mph    
Visibility 10 miles    
Events      
T = Trace of Precipitation, MM = Missing Value Source: NWS Daily Summary

Daily Weather History Graph

Daily Weather History Graph

Search for Another Location

Airport or City:

Trip Planner

Search our weather history database for the weather conditions in past years. The results will help you decide how hot, cold, wet, or windy it might be!

Date:

Astronomy

Oct. 07, 2013 Rise Set
Actual Time 7:03 AM CDT 6:34 PM CDT
Civil Twilight 6:36 AM CDT 7:01 PM CDT
Nautical Twilight 6:05 AM CDT 7:31 PM CDT
Astronomical Twilight 5:34 AM CDT 8:02 PM CDT
Moon 9:51 AM CDT (10/7) 8:21 PM CDT (10/7)
Length of Visible Light 12h 24m
Length of Day
11h 31m
Waxing Crescent, 9% of the Moon is Illuminated
Oct 7
Waxing Crescent
Oct 11
First Quarter
Oct 18
Full
Oct 26
Last Quarter
Nov 3
New

Hourly Weather History & Observations

Time (CDT) Temp. Dew Point Humidity Pressure Visibility Wind Dir Wind Speed Gust Speed Precip Events Conditions
12:51 AM 52.0 °F 46.9 °F 83% 29.92 in 10.0 mi West 13.8 mph - N/A   Mostly Cloudy
1:10 AM 51.8 °F 46.4 °F 82% 29.92 in 10.0 mi West 12.7 mph - N/A   Scattered Clouds
1:51 AM 53.1 °F 45.0 °F 74% 29.93 in 10.0 mi West 15.0 mph - N/A   Mostly Cloudy
2:09 AM 53.6 °F 44.6 °F 72% 29.93 in 10.0 mi West 15.0 mph 21.9 mph N/A   Mostly Cloudy
2:21 AM 53.6 °F 44.6 °F 72% 29.93 in 10.0 mi WNW 12.7 mph 21.9 mph N/A   Mostly Cloudy
2:51 AM 53.1 °F 45.0 °F 74% 29.93 in 10.0 mi WNW 15.0 mph - N/A   Overcast
3:08 AM 53.6 °F 44.6 °F 72% 29.93 in 10.0 mi West 15.0 mph - N/A   Overcast
3:51 AM 52.0 °F 45.0 °F 77% 29.94 in 10.0 mi West 13.8 mph 24.2 mph N/A   Mostly Cloudy
4:42 AM 53.6 °F 44.6 °F 72% 29.96 in 10.0 mi West 11.5 mph - N/A   Mostly Cloudy
4:51 AM 52.0 °F 45.0 °F 77% 29.96 in 10.0 mi West 9.2 mph - N/A   Mostly Cloudy
5:51 AM 52.0 °F 46.0 °F 80% 29.99 in 10.0 mi West 9.2 mph - N/A   Mostly Cloudy
6:51 AM 53.1 °F 45.0 °F 74% 30.01 in 10.0 mi WNW 13.8 mph - N/A   Mostly Cloudy
7:00 AM 53.6 °F 44.6 °F 72% 30.01 in 10.0 mi West 11.5 mph - N/A   Mostly Cloudy
7:51 AM 53.1 °F 45.0 °F 74% 30.04 in 10.0 mi WNW 9.2 mph - N/A   Overcast
8:51 AM 54.0 °F 45.0 °F 72% 30.06 in 10.0 mi WNW 9.2 mph - N/A   Overcast
9:51 AM 55.0 °F 45.0 °F 69% 30.09 in 10.0 mi WNW 15.0 mph - N/A   Overcast
10:47 AM 57.2 °F 46.4 °F 67% 30.10 in 10.0 mi WNW 8.1 mph 16.1 mph N/A   Scattered Clouds
10:51 AM 59.0 °F 46.0 °F 62% 30.10 in 10.0 mi WNW 11.5 mph - N/A   Scattered Clouds
11:51 AM 62.1 °F 46.0 °F 56% 30.11 in 10.0 mi WNW 6.9 mph - N/A   Scattered Clouds
12:51 PM 66.0 °F 46.0 °F 48% 30.10 in 10.0 mi WNW 8.1 mph - N/A   Partly Cloudy
1:51 PM 66.9 °F 45.0 °F 45% 30.08 in 10.0 mi WNW 9.2 mph - N/A   Partly Cloudy
2:51 PM 69.1 °F 44.1 °F 40% 30.07 in 10.0 mi NNW 3.5 mph - N/A   Partly Cloudy
3:51 PM 71.1 °F 43.0 °F 36% 30.06 in 10.0 mi North 6.9 mph - N/A   Partly Cloudy
4:51 PM 71.1 °F 42.1 °F 35% 30.06 in 10.0 mi Calm Calm - N/A   Partly Cloudy
5:51 PM 69.1 °F 44.1 °F 40% 30.07 in 10.0 mi WNW 3.5 mph - N/A   Partly Cloudy
6:51 PM 66.9 °F 43.0 °F 42% 30.08 in 10.0 mi Calm Calm - N/A   Partly Cloudy
7:51 PM 61.0 °F 48.0 °F 62% 30.10 in 10.0 mi Calm Calm - N/A   Clear
8:51 PM 59.0 °F 48.0 °F 67% 30.12 in 10.0 mi SW 3.5 mph - N/A   Clear
9:51 PM 59.0 °F 46.9 °F 64% 30.13 in 9.0 mi Calm Calm - N/A   Clear
10:51 PM 57.9 °F 46.9 °F 67% 30.14 in 10.0 mi Calm Calm - N/A   Clear
11:51 PM 57.0 °F 46.9 °F 69% 30.14 in 10.0 mi Calm Calm - N/A   Clear